Weather History for Goodland, KS

Change the Weather History Date:

Sunday, October 21, 2012

  Actual Average Record
Temperature  
Mean Temperature 57 °F 50 °F  
Max Temperature 73 °F 64 °F 90 °F (1921)
Min Temperature 40 °F 36 °F 18 °F (1976)
Degree Days  
Heating Degree Days 8 15  
Month to date heating degree days 288 244  
Since 1 July heating degree days 364 368  
Cooling Degree Days 0 0  
Month to date cooling degree days 2 5  
Year to date cooling degree days 1338 938  
Growing Degree Days 8 (Base 50)    
Moisture  
Dew Point 30 °F    
Average Humidity 46    
Maximum Humidity 70    
Minimum Humidity 22    
Precipitation  
Precipitation 0.00 in 0.05 in 1.87 in (2009)
Month to date precipitation 0.33 0.99  
Year to date precipitation 8.94 18.11  
Snow  
Snow 0.00 in 0.10 in - ()
Month to date snowfall 0.5 1.2  
Since 1 July snowfall 0.5 1.6  
Since 1 September snowfall 0.5 1.6  
Snow Depth 0.00 in    
Sea Level Pressure  
Sea Level Pressure 29.69 in    
Wind  
Wind Speed 12 mph (NNW)    
Max Wind Speed 23 mph    
Max Gust Speed 28 mph    
Visibility 10 miles    
Events      
T = Trace of Precipitation, MM = Missing Value Source: NWS Daily Summary

Daily Weather History Graph

Daily Weather History Graph

Search for Another Location

Airport:

Trip Planner

Search our weather history database for the weather conditions in past years. The results will help you decide how hot, cold, wet, or windy it might be!

Date:

Astronomy

Oct. 21, 2012 Rise Set
Actual Time 7:03 AM MDT 5:58 PM MDT
Civil Twilight 6:36 AM MDT 6:25 PM MDT
Nautical Twilight 6:04 AM MDT 6:57 PM MDT
Astronomical Twilight 5:33 AM MDT 7:28 PM MDT
Moon 1:25 PM MDT (10/21) 11:55 PM MDT (10/21)
Length of Visible Light 11h 49m
Length of Day
10h 55m
Waxing Crescent, 46% of the Moon is Illuminated
Oct 21
Waxing Crescent
Oct 21
First Quarter
Oct 29
Full
Nov 6
Last Quarter
Nov 13
New

Hourly Weather History & Observations

Time (MDT) Temp. Windchill Dew Point Humidity Pressure Visibility Wind Dir Wind Speed Gust Speed Precip Events Conditions
12:53 AM 57.9 °F - 33.1 °F 39% 29.57 in 10.0 mi SSW 17.3 mph - N/A   Clear
1:53 AM 57.0 °F - 33.1 °F 40% 29.56 in 10.0 mi South 17.3 mph - N/A   Clear
2:53 AM 55.0 °F - 33.1 °F 43% 29.57 in 10.0 mi SSW 13.8 mph - N/A   Clear
3:53 AM 53.1 °F - 32.0 °F 45% 29.57 in 10.0 mi SW 12.7 mph - N/A   Clear
4:53 AM 46.9 °F - 30.0 °F 52% 29.60 in 10.0 mi WSW 12.7 mph - N/A   Clear
5:53 AM 48.0 °F - 26.1 °F 42% 29.62 in 10.0 mi West 9.2 mph - N/A   Clear
6:53 AM 43.0 °F 38.2 °F 25.0 °F 49% 29.66 in 10.0 mi West 8.1 mph - N/A   Clear
7:53 AM 46.9 °F - 25.0 °F 42% 29.67 in 10.0 mi WNW 4.6 mph - N/A   Clear
8:53 AM 57.0 °F - 25.0 °F 29% 29.68 in 10.0 mi NNW 15.0 mph - N/A   Clear
9:53 AM 62.1 °F - 25.0 °F 24% 29.70 in 10.0 mi North 16.1 mph - N/A   Clear
10:53 AM 64.9 °F - 26.1 °F 23% 29.69 in 10.0 mi North 17.3 mph - N/A   Clear
11:53 AM 68.0 °F - 28.0 °F 22% 29.69 in 10.0 mi North 17.3 mph - N/A   Clear
12:53 PM 70.0 °F - 30.9 °F 24% 29.67 in 10.0 mi North 16.1 mph 25.3 mph N/A   Clear
1:53 PM 72.0 °F - 32.0 °F 23% 29.65 in 10.0 mi North 19.6 mph 25.3 mph N/A   Clear
2:53 PM 73.0 °F - 33.1 °F 23% 29.66 in 10.0 mi North 16.1 mph 24.2 mph N/A   Clear
3:53 PM 71.1 °F - 32.0 °F 24% 29.67 in 10.0 mi NNE 17.3 mph 24.2 mph N/A   Clear
4:53 PM 70.0 °F - 30.0 °F 23% 29.70 in 10.0 mi NNE 15.0 mph 20.7 mph N/A   Clear
5:53 PM 61.0 °F - 30.9 °F 32% 29.73 in 10.0 mi North 9.2 mph - N/A   Clear
6:53 PM 51.1 °F - 30.0 °F 44% 29.79 in 10.0 mi North 5.8 mph - N/A   Clear
7:53 PM 48.9 °F - 30.9 °F 50% 29.81 in 10.0 mi NNW 5.8 mph - N/A   Clear
8:53 PM 48.9 °F - 32.0 °F 52% 29.80 in 10.0 mi NNE 9.2 mph - N/A   Clear
9:53 PM 48.9 °F - 34.0 °F 56% 29.79 in 10.0 mi North 9.2 mph - N/A   Clear
10:53 PM 46.0 °F 43.1 °F 34.0 °F 63% 29.80 in 10.0 mi NNE 5.8 mph - N/A   Clear
11:53 PM 43.0 °F 40.3 °F 34.0 °F 71% 29.80 in 10.0 mi NNE 4.6 mph - N/A   Clear